Home   Weather   Płock   Past weeks

Flag for Poland Past Weather in Płock, Poland — Yesterday and Last 2 Weeks

Now
41 °F

Quite cool.


Feels Like: 37 °F
Forecast: 38 / 57 °F
Wind: 6 mph from Northeast

Location: Plock

Current Time: Apr 30, 2017 at 11:17:50 am

Latest Report: Apr 30, 2017 at 10:00 am


Visibility: N/A

Pressure: 30.23 "Hg

Humidity: 75%

Dew Point: 34 °F

Location of PłockLocation

Past Weather in Płock — Graph

°F

Płock Temperature Yesterday

Maximum temperature yesterday: 53 °F (at 4:00 pm)
Minimum temperature yesterday: 39 °F (at 3:00 am)
Average temperature yesterday: 44 °F

High & Low Weather Summary for the Past Weeks

 TemperatureHumidityPressure
High62 °F (Apr 25, 2:00 pm)96% (Apr 28, 9:00 pm)30.50 "Hg (Apr 28, 9:00 pm)
Low29 °F (Apr 17, 5:00 am)32% (Apr 23, 12:00 pm)29.57 "Hg (Apr 25, 3:00 pm)
Average42 °F71%30.00 "Hg
* Reported Apr 15 9:00 am — Apr 30 9:00 am, Płock, Weather by CustomWeather, © 2017

Note: Actual official high and low records may vary slightly from our data, if they occured in-between our weather recording intervals... More about our weather records

Advertising

Płock Weather History for the Previous 24 Hours

Scroll right to see more
 ConditionsComfort  
Time TempWeatherWind HumidityBarometerVisibility
9:00 am
Sun, Apr 30
40 °FQuite cool.6 mph80%30.22 "HgN/A
8:00 am39 °FChilly.5 mph83%30.21 "HgN/A
7:00 am39 °FChilly.5 mph90%30.20 "HgN/A
6:00 am38 °FChilly.3 mph90%30.18 "HgN/A
5:00 am37 °FChilly.3 mph92%30.16 "HgN/A
4:00 am39 °FChilly.3 mph91%30.14 "HgN/A
3:00 am41 °FQuite cool.5 mph90%30.12 "HgN/A
2:00 am42 °FQuite cool.1 mph89%30.09 "HgN/A
1:00 am42 °FQuite cool.2 mph87%30.09 "HgN/A
12:00 am43 °FQuite cool.3 mph86%30.08 "HgN/A
11:00 pm
Sat, Apr 29
43 °FQuite cool.1 mph82%30.07 "HgN/A
10:00 pm44 °FQuite cool.No wind81%30.06 "HgN/A
9:00 pm45 °FQuite cool.1 mph80%30.05 "HgN/A
8:00 pm46 °FCool.3 mph78%30.03 "HgN/A
7:00 pm49 °FCool.1 mph63%30.01 "HgN/A
6:00 pm48 °FCool.5 mph68%30.00 "HgN/A
5:00 pm51 °FCool.3 mph53%29.99 "HgN/A
4:00 pm53 °FCool.3 mph54%29.98 "HgN/A
3:00 pm51 °FCool.5 mph58%29.98 "HgN/A
2:00 pm50 °FCool.5 mph70%29.97 "HgN/A
1:00 pm49 °FCool.6 mph66%29.96 "HgN/A
12:00 pm47 °FCool.6 mph74%29.95 "HgN/A
11:00 am45 °FQuite cool.6 mph78%29.94 "HgN/A
Weather by CustomWeather, © 2017

See weather overviewHow to use our weather pages